Regional Weather Roundup
Issued by NWS

Home | Current Version | Previous Version | Graphics & Text | Print | Product List | Glossary Off
Versions: 1 2 3 4 5 6 7 8 9 10 11 12 13 14 15 16 17 18 19 20 21 22 23 24 25 26 27 28 29 30 31 32 33 34 35 36 37 38 39 40 41 42 43 44 45 46 47 48 49 50

000
ASUS43 KMKX 060311
RWRWI

WISCONSIN REGIONAL WEATHER ROUNDUP
NATIONAL WEATHER SERVICE MILWAUKEE/SULLIVAN WI
900 PM CST MON DEC 05 2016

NOTE: "FAIR" INDICATES FEW OR NO CLOUDS BELOW 12,000 FEET WITH NO
SIGNIFICANT WEATHER AND/OR OBSTRUCTIONS TO VISIBILITY.

WIZ001-002-006>008-014>016-023>028-060400-
NORTHWEST WISCONSIN

CITY           SKY/WX    TMP DP  RH WIND       PRES   REMARKS
SUPERIOR ARPT  CLOUDY    35  33  91 E7        29.68F WCI  29
ASHLAND        CLOUDY    36  33  89 MISG      29.73F
HAYWARD        CLOUDY    35  29  78 S9G22     29.70S WCI  28
SIREN          CLOUDY    35  31  84 SE13      29.66F WCI  27
CUMBERLAND     CLOUDY    32  30  93 SE10      29.69S WCI  24
RICE LAKE      CLOUDY    34  32  92 SE10      29.73R WCI  26
CHETEK         CLOUDY    34  31  90 SE8       29.73R WCI  27
LADYSMITH      CLOUDY    35  31  87 SE9       29.76F WCI  27
EAU CLAIRE     CLOUDY    36  30  79 SE15      29.74F WCI  27
MENOMONIE      CLOUDY    35  32  88 E8        29.74R WCI  28
NEW RICHMOND   CLOUDY    37  31  80 S15G21    29.68F WCI  27
OSCEOLA        CLOUDY    37  31  79 SE16      29.69S WCI  27
$$

WIZ003>005-009-010-017-018-060400-
NORTH CENTRAL WISCONSIN

CITY           SKY/WX    TMP DP  RH WIND       PRES   REMARKS
MANITOWISH WTR CLOUDY    33  33 100 SE7       29.77R WCI  27
ARBOR VITAE    CLOUDY    37  33  89 SE10      29.78S WCI  29
WOODRUFF       CLOUDY    37  33  89 SE10      29.78S WCI  29
RHINELANDER    CLOUDY    34  32  92 SE7       29.81F WCI  28
EAGLE RIVER    CLOUDY    33  32  98 SE5       29.80S WCI  28
LAND O LAKES   CLOUDY    34  33  96 SE3       29.80F
PHILLIPS       CLOUDY    33  30  89 SE9       29.73F WCI  25
TOMAHAWK       CLOUDY    32  30  93 E7        29.79F WCI  26
MEDFORD        CLOUDY    32  30  92 SE10G18   29.76F WCI  23
MERRILL        CLOUDY    33  32  96 SE7       29.83S WCI  27
$$

WIZ029-030-035-036-043>047-060400-
CENTRAL WISCONSIN

CITY           SKY/WX    TMP DP  RH WIND       PRES   REMARKS
WAUSAU         CLOUDY    32  30  92 SE8       29.83R WCI  25
MOSINEE        CLOUDY    30  30 100 SE8       29.85S FOG     WCI  23
MARSHFIELD     CLOUDY    32  29  88 SE12      29.81S WCI  23
STEVENS POINT  CLOUDY    30  30 100 SE7       29.86S FOG     WCI  23
WAUPACA        CLOUDY    34  32  92 SE5       29.90F FOG     WCI  30
WAUTOMA        CLOUDY    32  30  92 SE9       29.89F FOG     WCI  24
WISC RAPIDS    CLOUDY    33  32  96 SE8       29.86S WCI  26
CAMP DOUGLAS   CLOUDY    32  30  93 SE9       29.84F WCI  24
$$

WIZ011>013-019>022-031-037>040-048>050-060400-
NORTHEAST WISCONSIN

CITY           SKY/WX    TMP DP  RH WIND       PRES   REMARKS
ANTIGO         CLOUDY    31  31 100 SE12      29.84S FOG     WCI  21
SHAWANO        CLOUDY    34  32  91 SE6       29.91F FOG     WCI  29
OCONTO         CLOUDY    33  32  96 S5        29.93R WCI  29
STURGEON BAY   CLOUDY   N/A N/A N/A SE5       29.95
GREEN BAY      CLOUDY    35  33  92 SE7       29.93S WCI  29
MANITOWOC      CLOUDY    35  33  92 MISG      29.96R FOG
APPLETON       CLOUDY    34  32  93 S8        29.91R WCI  27
CLINTONVILLE   CLOUDY    32  32 100 S9        29.91S FOG     WCI  24
OSHKOSH        CLOUDY    32  30  92 S9        29.91F WCI  24
$$

WIZ032>034-041-042-053>061-060400-
SOUTHWEST WISCONSIN

CITY           SKY/WX    TMP DP  RH WIND       PRES   REMARKS
LA CROSSE      CLOUDY    37  31  78 S9        29.80S WCI  30
SPARTA         CLOUDY    34  31  88 SE9       29.82F WCI  27
VIROQUA        CLOUDY    32  32  99 SE12      29.81S WCI  23
BOSCOBEL       CLOUDY    35  31  85 VRB3      29.86F
PRAIRIE DU CHI CLOUDY    34  31  88 SE6       29.84S WCI  29
PLATTEVILLE    CLOUDY    32  32 100 SE12      29.85F WCI  23
$$

WIZ056-057-062-063-064-067-068-060400-
SOUTH CENTRAL WISCONSIN

CITY           SKY/WX    TMP DP  RH WIND       PRES   REMARKS
REEDSBURG      CLOUDY    32  32 100 CALM      29.86S FOG
BARABOO/DELLS  CLOUDY    32  31  96 SE9       29.86F FOG     WCI  24
LONE ROCK      CLOUDY    34  31  88 SE6       29.88S FOG     WCI  29
MINERAL POINT  FOG       32  32 100 SE14G21   29.85S VSB 3/4 WCI  22
MADISON        CLOUDY    32  30  92 SE10      29.89F FOG     WCI  24
MIDDLETON      NOT AVBL
WATERTOWN      CLOUDY    31  31 100 SE7       29.91F FOG     WCI  24
MONROE         FOG       30  30 100 SE15G22   29.89F VSB 1/2 WCI  19
JANESVILLE     CLOUDY    32  32 100 S12       29.93R FOG     WCI  23
$$

WIZ051-052-058>065-066-070>072-060400-
SOUTHEAST WISCONSIN

CITY           SKY/WX    TMP DP  RH WIND       PRES   REMARKS
MILWAUKEE      CLOUDY    35  32  88 S5        29.95F FOG     WCI  31
WAUKESHA       CLOUDY    30  30 100 E10       29.94F FOG     WCI  21
MILWAUKEE/TIMM CLOUDY    32  30  93 SE5       29.96F FOG     WCI  27
RACINE         CLOUDY    35  32  88 S8        29.97S FOG     WCI  29
BURLINGTON     CLOUDY    31  31  99 SE6       29.94F FOG     WCI  25
KENOSHA        CLOUDY    34  32  92 S7        29.96R FOG     WCI  28
FOND DU LAC    CLOUDY    33  28  81 S9        29.91F WCI  25
SHEBOYGAN      CLOUDY    33  31  92 S8        29.95S FOG     WCI  26
WEST BEND      CLOUDY    32  32 100 CALM      29.94F FOG
JUNEAU         CLOUDY    31  30  96 SE9       29.92F FOG     WCI  23
$$

LSZ147-162-060400-
LAKE SUPERIOR

STATION/POSITION TIME  TEMP    WIND        PRES    WAVE
                       AIR SEA DIR/SP/G            HT/PER
                 (UTC) (F)     (DEG/KT/KT) (MB)    (FT/S)
DEVILS ISLAND    0300   40     120/ 19/ 24 1006.9F
PORT WING        0240   37     130/  2/  5 1006.8S
SAXON HARBOR     0240   38     150/  4/ 10 1007.1F
$$

LMZ867-665-643>646-060400-
LAKE MICHIGAN

STATION/POSITION TIME  TEMP    WIND        PRES    WAVE
                       AIR SEA DIR/SP/G            HT/PER
                 (UTC) (F)     (DEG/KT/KT) (MB)    (FT/S)
CHAMBERS ISLAND  0240   36     210/  1/  7 1013.5F
NORTHPORT PIER   0240   35      CALM  /  3 1014.2F
SISTER BAY       0239   34     180/  8/  9   N/A
ALGOMA LAKESHORE 0236             CALM       N/A
KEWAUNEE LAKESHO 0248   37     210/  8/ 13 1014.0R
SHEBOYGAN LAKESH 0300   38     180/ 15/ 16 1014.6S
PORT WASHINGTON  0240   35     200/  5/  7 1015.2F
MILWAUKEE LAKESH 0250   35     200/  6/  7   N/A
KENOSHA   LAKESH 0300   38     170/ 13/ 18 1014.6
$$

TC  - TEMPERATURE IN CELSIUS
VSB - VISIBILITY IN STATUTE MILES
WCI - WIND CHILL INDEX
HX  - HEAT INDEX





USA.gov is the U.S. government's official web portal to all federal, state and local government web resources and services.